Weather History for Abilene, TX

Change the Weather History Date:

Friday, January 18, 2013

  Actual Average Record
Temperature  
Mean Temperature 46 °F 45 °F  
Max Temperature 63 °F 57 °F 81 °F (1964)
Min Temperature 28 °F 33 °F -2 °F (1930)
Degree Days  
Heating Degree Days 19 20  
Month to date heating degree days 440 370  
Since 1 July heating degree days 1275 1415  
Cooling Degree Days 0 0  
Month to date cooling degree days 0 0  
Year to date cooling degree days 0 0  
Moisture  
Dew Point 29 °F    
Average Humidity 58    
Maximum Humidity 85    
Minimum Humidity 30    
Precipitation  
Precipitation 0.00 in 0.03 in 1.19 in (1968)
Month to date precipitation 1.31 0.53  
Year to date precipitation 1.31 0.53  
Sea Level Pressure  
Sea Level Pressure 30.35 in    
Wind  
Wind Speed 10 mph (South)    
Max Wind Speed 21 mph    
Max Gust Speed 24 mph    
Visibility 10 miles    
Events      
T = Trace of Precipitation, MM = Missing Value Source: NWS Daily Summary

Daily Weather History Graph

Daily Weather History Graph

Search for Another Location

Airport:

Trip Planner

Search our weather history database for the weather conditions in past years. The results will help you decide how hot, cold, wet, or windy it might be!

Date:

Astronomy

Jan. 18, 2013 Rise Set
Actual Time 7:39 AM CST 5:59 PM CST
Civil Twilight 7:13 AM CST 6:25 PM CST
Nautical Twilight 6:43 AM CST 6:55 PM CST
Astronomical Twilight 6:13 AM CST 7:25 PM CST
Moon 11:47 AM CST (1/18) 12:24 AM CST (1/18)
Length of Visible Light 11h 12m
Length of Day
10h 19m
Waxing Crescent, 47% of the Moon is Illuminated
Jan 18
Waxing Crescent
Jan 18
First Quarter
Jan 26
Full
Feb 3
Last Quarter
Feb 10
New

Hourly Weather History & Observations

Time (CST) Temp. Windchill Dew Point Humidity Pressure Visibility Wind Dir Wind Speed Gust Speed Precip Events Conditions
12:52 AM 35.1 °F 32.2 °F 27.0 °F 72% 30.49 in 10.0 mi SSW 3.5 mph - N/A   Clear
1:52 AM 34.0 °F - 27.0 °F 75% 30.48 in 10.0 mi Calm Calm - N/A   Clear
2:52 AM 32.0 °F 28.7 °F 27.0 °F 82% 30.47 in 10.0 mi South 3.5 mph - N/A   Clear
3:52 AM 28.9 °F 23.9 °F 25.0 °F 85% 30.47 in 10.0 mi South 4.6 mph - N/A   Clear
4:52 AM 28.9 °F 23.9 °F 25.0 °F 85% 30.45 in 10.0 mi South 4.6 mph - N/A   Clear
5:52 AM 30.0 °F - 26.1 °F 85% 30.43 in 10.0 mi North - - N/A   Clear
6:52 AM 35.1 °F 27.4 °F 28.9 °F 78% 30.42 in 10.0 mi SSE 10.4 mph - N/A   Clear
7:52 AM 37.9 °F 31.5 °F 28.9 °F 70% 30.42 in 10.0 mi South 9.2 mph - N/A   Clear
8:52 AM 43.0 °F 36.0 °F 30.0 °F 60% 30.41 in 10.0 mi South 13.8 mph - N/A   Clear
9:52 AM 48.0 °F - 30.0 °F 50% 30.42 in 10.0 mi South 13.8 mph - N/A   Clear
10:52 AM 52.0 °F - 30.0 °F 43% 30.43 in 10.0 mi South 11.5 mph - N/A   Clear
11:52 AM 57.0 °F - 30.9 °F 37% 30.39 in 10.0 mi SSW 11.5 mph - N/A   Clear
12:52 PM 59.0 °F - 30.0 °F 33% 30.35 in 10.0 mi SW 18.4 mph 24.2 mph N/A   Clear
1:52 PM 59.0 °F - 32.0 °F 36% 30.31 in 10.0 mi SSW 16.1 mph - N/A   Clear
2:52 PM 62.1 °F - 33.1 °F 34% 30.29 in 10.0 mi SSW 12.7 mph - N/A   Clear
3:52 PM 62.1 °F - 30.9 °F 31% 30.27 in 10.0 mi South 11.5 mph - N/A   Clear
4:52 PM 62.1 °F - 30.9 °F 31% 30.25 in 10.0 mi South 11.5 mph - N/A   Clear
5:52 PM 57.9 °F - 28.9 °F 33% 30.25 in 10.0 mi South 9.2 mph - N/A   Clear
6:52 PM 51.1 °F - 30.0 °F 44% 30.26 in 10.0 mi SSE 9.2 mph - N/A   Clear
7:52 PM 46.0 °F 41.4 °F 30.0 °F 54% 30.26 in 10.0 mi SSE 9.2 mph - N/A   Clear
8:52 PM 45.0 °F 40.1 °F 30.9 °F 58% 30.25 in 10.0 mi SSE 9.2 mph - N/A   Clear
9:52 PM 45.0 °F 40.1 °F 30.0 °F 56% 30.23 in 10.0 mi South 9.2 mph - N/A   Clear
10:52 PM 44.1 °F 39.5 °F 30.9 °F 60% 30.21 in 10.0 mi South 8.1 mph - N/A   Clear
11:52 PM 46.9 °F - 30.9 °F 54% 30.19 in 10.0 mi SSW 11.5 mph - N/A   Clear